This is the latest recevied weather packets stored in our database for station/object NA9VY-8. If no packets are shown the sender has not sent any weather packets the latest 10 day(s).
| Time | Temp. | Humidity | Pressure | Rain* | Wind** | Luminosity | Snow |
|---|---|---|---|---|---|---|---|
| 1777820731 | 14.44° C | 49% | 1026.1 hPa | 0 mm | - | 159 W/m² | - |
| 1777820428 | 13.89° C | 48% | 1026.1 hPa | 0 mm | - | 625 W/m² | - |
| 1777820125 | 13.33° C | 49% | 1026.4 hPa | 0 mm | - | 559 W/m² | - |
| 1777819822 | 13.33° C | 50% | 1026.4 hPa | 0 mm | - | 555 W/m² | - |
| 1777819520 | 13.89° C | 50% | 1026.4 hPa | 0 mm | - | 607 W/m² | - |
| 1777819217 | 13.33° C | 54% | 1026.5 hPa | 0 mm | - | 586 W/m² | - |
| 1777818914 | 12.78° C | 48% | 1026.5 hPa | 0 mm | - | 601 W/m² | - |
| 1777818610 | 12.78° C | 50% | 1026.4 hPa | 0 mm | - | 526 W/m² | - |
| 1777818308 | 12.78° C | 51% | 1026.4 hPa | 0 mm | - | 415 W/m² | - |
| 1777818003 | 12.78° C | 53% | 1026.6 hPa | 0 mm | - | 543 W/m² | - |
| 1777817701 | 12.22° C | 53% | 1026.7 hPa | 0 mm | - | 552 W/m² | - |
| 1777817398 | 12.78° C | 53% | 1026.6 hPa | 0 mm | - | 476 W/m² | - |
| 1777817094 | 12.22° C | 54% | 1026.7 hPa | 0 mm | - | 469 W/m² | - |
| 1777816790 | 11.67° C | 55% | 1026.9 hPa | 0 mm | - | 424 W/m² | - |
| 1777816489 | 11.67° C | 53% | 1026.8 hPa | 0 mm | - | 410 W/m² | - |
| 1777816186 | 11.11° C | 54% | 1026.9 hPa | 0 mm | - | 383 W/m² | - |
| 1777815884 | 11.11° C | 53% | 1027 hPa | 0 mm | - | 307 W/m² | - |
| 1777815581 | 11.11° C | 53% | 1027.1 hPa | 0 mm | - | 327 W/m² | - |
| 1777815278 | 10.56° C | 55% | 1027.1 hPa | 0 mm | - | 303 W/m² | - |
| 1777814979 | 10.56° C | 54% | 1027 hPa | 0 mm | - | 281 W/m² | - |
| 1777814676 | 10.56° C | 56% | 1027.4 hPa | 0 mm | - | 313 W/m² | - |
| 1777814373 | 10° C | 57% | 1027.5 hPa | 0 mm | - | 270 W/m² | - |
| 1777814070 | 10° C | 59% | 1027.4 hPa | 0 mm | - | 268 W/m² | - |
| 1777813767 | 10° C | 58% | 1027.5 hPa | 0 mm | - | 250 W/m² | - |
| 1777813464 | 10° C | 60% | 1027.7 hPa | 0 mm | - | 261 W/m² | - |
* Rain latest hour (hover to see other rain measurements)
** Current wind speed in m/s (hover to see current wind gust speed)